Weather in Runaway Bay

Jamaica     18°27′18″N   77°20′01″W
temp.,
°C
wind,
m/s
gust,
m/s
humid.,
%
clouds,
%
prec.,
mm/h
press.,
hPa
HPBL,
m
13 may, thu
thu1301:00+26ese47755 0.0 1015449
04:00+26ese6107899 0.0 1014610
07:00+26ese7107497 0.0 1016654
10:00+27e787714 0.0 1017806
13:00+27ene677718 0.0 1015582
16:00+28e787681 0.0 1013583
19:00+27ese457964 0.1 1014320
22:00+26ene44806 0.0 1016474
14 may, fri
fri1401:00+26e23796 0.0 1015562
04:00+26ese238013 0.0 1014491
07:00+26ese23817 0.1 1016408
10:00+26ene34797 0.0 1017407
13:00+27ene56765 0.0 1015513
16:00+28e557610 0.0 1013736
19:00+27ese33793 0.1 1014344
22:00+26e338017 0.1 1016396
15 may, sat
sat1501:00+26ese22805 0.6 1014310
04:00+26se33815 0.1 1014373
07:00+26ese45811 0.1 1015535
10:00+27ene56761 0.0 1016620
13:00+27ene77764 0.0 1014627
16:00+27e77766 0.2 1013798
19:00+27ese34776 0.3 1014372
22:00+26e568048 0.2 1016626
16 may, sun
sun1601:00+26e348010 0.8 1014549
04:00+26e56787 0.0 1014699
07:00+26ese688125 0.1 1015746
10:00+27e677859 0.2 1017807
13:00+27ene787776 0.4 1015750
16:00+27e668136 1.1 1014750
19:00+26sse22765 2.7 1015197
22:00+26ese44792 0.1 1016577
17 may, mon
mon1701:00+26e46785 0.1 1015713
04:00+26ese67816 0.0 1014721
07:00+26ese5680100 0.0 1015560
10:00+27e5573100 0.1 1016656
13:00+27ene667753 0.8 1015612
16:00+26ese678025 5.1 1014425
19:00+26ese4479100 8.6 1014218
22:00+26sse237711 2.2 1016191